Regional Weather Roundup
Issued by NWS

Home | Current Version | Previous Version | Text Only | Print | Product List | Glossary On
Versions: 1 2 3 4 5 6 7 8 9 10 11 12 13 14 15 16 17 18 19 20 21 22 23 24 25 26 27 28 29 30 31 32 33 34 35 36 37 38 39 40 41 42 43 44 45 46 47 48 49 50
000
ASUS43 KOAX 020610
RWRNE

WEATHER ROUNDUP FOR NEBRASKA
NATIONAL WEATHER SERVICE OMAHA NE
100 AM CDT WED SEP 02 2015

NOTES: SATELLITE DATA IS BEING USED TO AUGMENT CLOUD COVER ABOVE
       12000 FEET.
       "FAIR" INDICATES FEW OR NO CLOUDS BELOW 12,000 FEET WITH NO
       SIGNIFICANT WEATHER AND/OR OBSTRUCTIONS TO VISIBILITY.

  * THESE STATIONS DO NOT REPORT WEATHER SUCH AS RAIN...SNOW OR FOG.

NEZ001>004-019>022-054>056-020700-
NEBRASKA PANHANDLE

CITY           SKY/WX    TMP DP  RH WIND       PRES   REMARKS
SCOTTSBLUFF    CLEAR     63  49  60 W5        29.94S
6HR MIN TEMP:  63; 6HR MAX TEMP:  90;

ALLIANCE       CLEAR     65  48  54 S9        29.93F
6HR MIN TEMP:  64; 6HR MAX TEMP:  91;

CHADRON        PTCLDY    58  45  62 W6        29.89S
6HR MIN TEMP:  57; 6HR MAX TEMP:  94;

KIMBALL        CLEAR     62  45  53 SW9       30.02S
SIDNEY         CLEAR     69  41  36 SW10      30.01R
6HR MIN TEMP:  65; 6HR MAX TEMP:  90;

$$

NEZ057>060-069>072-079>082-020700-
SOUTHWEST NEBRASKA

CITY           SKY/WX    TMP DP  RH WIND       PRES   REMARKS
NORTH PLATTE   CLEAR     64  61  90 E5        29.91S
6HR MIN TEMP:  64; 6HR MAX TEMP:  89;

IMPERIAL       CLEAR     70  56  61 SW5       29.95S
6HR MIN TEMP:  69; 6HR MAX TEMP:  93;

LEXINGTON      CLEAR     68  64  88 E3        29.90F
MCCOOK         CLEAR     72  57  59 SW3       29.91S
6HR MIN TEMP:  72; 6HR MAX TEMP:  93;

OGALLALA       CLEAR     70  55  59 SW6       29.94S
$$

NEZ005>010-023>029-035>040-094-020700-
NORTH CENTRAL NEBRASKA

CITY           SKY/WX    TMP DP  RH WIND       PRES   REMARKS
VALENTINE      CLEAR     75  61  61 S15       29.86S
6HR MIN TEMP:  73; 6HR MAX TEMP:  91;

BROKEN BOW     CLEAR     65  62  90 CALM      29.90F
6HR MIN TEMP:  65; 6HR MAX TEMP:  89;

O`NEILL        CLEAR     71  67  85 S7        29.87F
ORD            CLEAR     67  64  90 CALM      29.87F
6HR MIN TEMP:  64; 6HR MAX TEMP:  87;

THEDFORD       CLEAR     70  63  78 S10       29.91S
$$

NEZ041-046>049-061>064-073>077-083>087-020700-
SOUTH CENTRAL NEBRASKA

CITY           SKY/WX    TMP DP  RH WIND       PRES   REMARKS
GRAND ISLAND   FAIR      74  64  71 S12       29.90F
6HR MIN TEMP:  74; 6HR MAX TEMP:  91;

AURORA         FAIR      74  65  73 S10       29.90F
HASTINGS       FAIR      75  64  68 S9        29.91S
6HR MIN TEMP:  75; 6HR MAX TEMP:  89;

HEBRON         FAIR      76  64  65 S10       29.92F
HOLDREGE       FAIR      72  60  64 S7        29.91S
KEARNEY *      FAIR      72  61  68 S9        29.90S
YORK           FAIR      73  66  78 S10       29.91S
$$

NEZ011>018-030>034-042>045-020700-
NORTHEAST NEBRASKA

CITY           SKY/WX    TMP DP  RH WIND       PRES   REMARKS
NORFOLK        FAIR      75  65  70 S10       29.87F
6HR MIN TEMP:  73; 6HR MAX TEMP:  86;

ALBION         FAIR      71  64  79 SE6       29.89S
BLAIR          FAIR      75  65  71 S15       29.91F
COLUMBUS *     FAIR      73  63  68 S7        29.89F
FREMONT        FAIR      76  65  69 SE13G18   29.90F
TEKAMAH        FAIR      75  67  76 S8        29.89F
6HR MIN TEMP:  73; 6HR MAX TEMP:  84;

WAYNE          FAIR      71  67  88 S7        29.89S
$$

NEZ050>053-065>068-078-088>093-020700-
SOUTHEAST NEBRASKA

CITY           SKY/WX    TMP DP  RH WIND       PRES   REMARKS
LINCOLN        FAIR      77  67  71 S13       29.91S
6HR MIN TEMP:  77; 6HR MAX TEMP:  86;

OMAHA EPPLEY   FAIR      78  67  68 S16       29.91F
6HR MIN TEMP:  78; 6HR MAX TEMP:  86;

BEATRICE       FAIR      76  67  74 S10       29.93S
FALLS CITY     TSTM      75  69  81 S12       29.95F
6HR MIN TEMP:  75; 6HR MAX TEMP:  84;

NEBRASKA CITY  FAIR      76  63  63 S12       29.95S
PLATTSMOUTH    FAIR      75  65  69 S13G22    29.93F
$$

NEZ044-045-051>053-067-020700-
OMAHA AREA

CITY           SKY/WX    TMP DP  RH WIND       PRES   REMARKS
OMAHA EPPLEY   FAIR      78  67  68 S16       29.91F
6HR MIN TEMP:  78; 6HR MAX TEMP:  86;

BLAIR          FAIR      75  65  71 S15       29.91F
FREMONT        FAIR      76  65  69 SE13G18   29.90F
MILLARD        FAIR      76  68  77 SE7       29.91F
OFFUTT AFB     FAIR      75  68  78 SE12      29.92S
PLATTSMOUTH    FAIR      75  65  69 S13G22    29.93F
WAHOO          FAIR      71  67  87 SE6       29.91S
$$



USA.gov is the U.S. government's official web portal to all federal, state and local government web resources and services.